www.pogodaiklimat.ru

Погода и климат >> Архив погоды >> Гана >> Солтпонд


ПОГОДА в Солтпонде

  • Прогноз погоды в Солтпонде
  • Монитор погоды в Солтпонде

АРХИВ ПОГОДЫ в Солтпонде

Время (UTC), дата Ветер
(напр.,м/с)
 
Видим.   Явления Облачность Т
(С)
Тd
(С)
f
(%)
Тe
(С)
Тes
(С)
Комфортность P
(гПа)
Po
(гПа)
Тmin
(С)
Tmax
(С)
R
(мм)
R24
(мм)
S
(см)
12 15.01 ЮЗ 2 8000 м мгла 3/3 480 м
[Cu med, cong]
+31.7 +27.1 77 +50 +62 опасность
перегрева
1012.1 1012.0
15 15.01 ЮЗ 2 8000 м мгла 1/1 420 м
[Cu med, cong]
+31.5 +26.9 77 +49 +57 опасность
перегрева
1009.5 1010.0
21 15.01 ЮЗ 2 6000 м дымка ясно +28.5 +27.4 94 +46 +46 опасность
перегрева
1012.2 1012.0
00 16.01 штиль 0 6000 м дымка 1/1 360 м
[Sc]
+28.0 +26.8 93 +44 +44 опасность
перегрева
1011.7 1012.0
03 16.01 штиль 0 6000 м дымка 4/3 330 м
[Sc Ci sp]
+26.6 +25.8 95 +39 +39 очень
душно
1010.3 1010.0
09 16.01 ЮЗ 2 8000 м дымка 8/1 450 м
[Cu hum Cs]
+29.2 +26.6 86 +45 +52 опасность
перегрева
1012.9 1013.0
12 16.01 ЮЗ 3 8000 м мгла 8/3 500 м
[Cu med, cong Cs]
+31.7 +26.8 75 +49 +59 опасность
перегрева
1011.3 1011.0
15 16.01 ЮЗ 4 8000 м гроза без осадков 8/1 480 м
[Cb cap Cs]
+31.5 +26.8 76 +49 +54 опасность
перегрева
1008.5 1009.0
18 16.01 ЮЗ 2 8000 м гроза без осадков 9/3 360 м
[Cb cap Ac cuf Cs]
+29.1 +27.0 88 +46 +46 опасность
перегрева
1010.0 1010.0 +32.1
21 16.01 ЮЗ 1 8000 м в посл. час гроза {дождь} 8/1 330 м
[Sc Cs]
+24.2 +22.5 90 +32 +32 очень
душно
1011.5 1012.0
00 17.01 штиль 0 8000 м дымка {гроза, дождь} 6/1 330 м
[Sc Ci sp]
+24.0 +22.3 90 +31 +31 очень
душно
1011.7 1012.0 0.1
03 17.01 штиль 0 8000 м дымка 6/0
[Ci sp]
+24.5 +23.1 92 +33 +33 очень
душно
1010.5 1011.0
06 17.01 штиль 0 8000 м дымка 4/1 330 м
[Sc Ci sp]
+23.8 +22.8 94 +31 +31 очень
душно
1011.4 1011.0 +23.1 0.1
12 17.01 ЮЗ 2 8000 м мгла 9/4 360 м
[Cu Sc Cs]
+32.0 +27.4 77 +51 +60 опасность
перегрева
1011.4 1011.0
15 17.01 ЮЗ 3 8000 м мгла 9/4 480 м
[Cu med, cong Cs]
+31.0 +27.1 80 +49 +53 опасность
перегрева
1009.1 1009.0
12 18.01 ЮЗ 3 12 км 6/3 480 м
[Cu med, cong Ac trans Ci sp]
+31.3 +26.7 77 +49 +58 опасность
перегрева
1012.2 1012.0
12 19.01 ЮЗ 3 20 км 9/1 480 м
[Cu med, cong Cs]
+31.3 +26.4 75 +47 +58 опасность
перегрева
1012.8 1013.0
15 19.01 ЮЗ 3 20 км 6/3 480 м
[Cb cap Ci ing]
+31.0 +26.2 76 +47 +52 опасность
перегрева
1010.3 1010.0
21 19.01 ЮЗ 1 16 км 6/1 330 м
[Sc Ci sp]
+27.3 +23.9 82 +38 +38 очень
душно
1013.5 1014.0
03 20.01 штиль 0 16 км 1/1 330 м
[Sc]
+25.0 +23.6 92 +34 +34 очень
душно
1012.3 1012.0
12 20.01 ЮЗ 2 18 км 9/5 400 м
[Cu Sc Cs]
+30.8 +26.6 78 +47 +55 опасность
перегрева
1013.3 1013.0
15 20.01 ЮЗ 3 18 км 6/1 540 м
[Cb cap Ci sp]
+31.2 +26.6 77 +48 +55 опасность
перегрева
1010.5 1011.0
18 20.01 ЮЗ 2 18 км 9/1 480 м
[Cb cap Ac cuf Cs]
+28.7 +26.0 85 +43 +43 опасность
перегрева
1011.9 1012.0 +31.3
21 20.01 штиль 0 16 км 5/0
[Ac trans Ci sp]
+26.3 +22.8 81 +35 +35 очень
душно
1013.8 1014.0
00 21.01 штиль 0 16 км ясно +25.5 +23.1 87 +34 +34 очень
душно
1013.8 1014.0
06 21.01 СВ 1 16 км 3/1 330 м
[Sc Ci sp]
+24.0 +22.9 94 +32 +32 очень
душно
1013.0 1013.0 +23.2
09 21.01 СЗ 1 18 км 8/8 330 м
[Cu Sc]
+29.0 +26.4 86 +44 +47 опасность
перегрева
1014.2 1014.0
12 21.01 ЮЗ 2 20 км 6/6 330 м
[Cu Sc]
+31.4 +26.2 74 +47 +55 опасность
перегрева
1012.4 1012.0
15 21.01 20 км н/о +31.0 +27.1 80 +49 +54 опасность
перегрева
1010.2 1010.0
18 21.01 ЮЗ 2 18 км 4/0
[Ci sp]
+29.0 +27.0 89 +46 +46 опасность
перегрева
1010.2 1010.0 +31.7
21 21.01 ЮЗ 2 16 км 4/0
[Ci sp]
+27.6 +26.3 93 +42 +42 опасность
перегрева
1012.5 1013.0
00 22.01 ЮЗ 2 14 км 4/0
[Ac trans Ci sp]
+26.6 +25.3 93 +39 +39 очень
душно
1012.3 1012.0
03 22.01 ЮЗ 1 14 км 8/0
[Ac trans Ci sp]
+25.9 +25.4 97 +38 +38 очень
душно
1011.0 1011.0
09 22.01 СЗ 1 18 км мгла {туман} 6/6 330 м
[Cu Sc Ac trans]
+27.5 +25.6 89 +40 +44 очень
душно
1033.4 1033.0

 

Местоположение метеостанции Солтпонд (Гана): широта 5.20 долгота -1.07 высота над уровнем моря 47 м.

В архиве по умолчанию представлена погода в Солтпонде за последнюю неделю. Архивные данные за месяц целиком и за предыдущие месяцы, начиная с января 2011 года, Вы можете получить, выбрав интересующий диапазон дат из раскрывающегося списка и нажав кнопку "Ввод!".


*Определитесь, кто Вы:
робот инопланетянин человек

Внимание! Время в таблицах - всемирное. Для получения местного времени необходимо прибавить поправку, которая равна 1 ч.

Смотрите также архив погоды в соседних городах и на ближайших метеорологических станциях:

Погода в Аким Ода (Гана) (82 км)
Погода Такоради (Гана) (85 км)
Погода в Аккра (Гана) (109 км)
Погода в Тема (Гана) (127 км)
Погода в Кофоридуа (Гана) (133 км)
Погода в Аксиме (Гана) (134 км)
Погода в Акюсе (Гана) (165 км)
Погода в Абетифи (Гана) (167 км)
Погода в Сефви Беквай (Гана) (178 км)
Погода в Кумаси (Гана) (179 км)

Пояснения к столбцам:

Ветер - указаны скорость ветра в м/с - средняя за 10 мин, порывы в срок и между сроками (в фигурных скобках) и направление, откуда дует ветер: С - северный, СВ - северо-восточный, В - восточный, ЮВ - юго-восточный, Ю - южный, ЮЗ - юго-западный, З - западный, СЗ - северо-западный.
Видимость - горизонтальная дальность видимости в метрах или километрах. При видимости от 1 до 10 км при отсутствии осадков обычно наблюдается дымка, при ухудшении видимости до 1 км и менее - туман. В сухую погоду видимость может ухудшаться дымом, пылью или мглою.
Явления - указаны атмосферные явления, наблюдавшиеся в срок или в последний час перед сроком; фигурными скобками обозначены явления, наблюдавшиеся между сроками (за 1-3 часа до срока); квадратными скобками обозначены град или гололедные отложения с указанием их диаметра в мм.
Облачность - указаны через наклонную черту общая и нижняя облачность в баллах и высота нижней границы облаков в метрах; квадратными скобками обозначены формы облаков: Ci - перистые, Cs - перисто-слоистые, Cc - перисто-кучевые, Ac - высококучевые, As - высокослоистые, Sc - слоисто-кучевые, Ns - слоисто-дождевые, Cu - кучевые, Cb - кучево-дождевые. Подробнее классификацию облаков см. в Атласе облаков (PDF).
T - Температура воздуха - температура, измеренная на высоте 2 м над землей.
Td - Температура точки росы - температура, при понижении до которой содержащийся в воздухе водяной пар достигнет насыщения.
f - Относительная влажность воздуха - влажноcть воздуха, измеренная на высоте 2 м над землей.
Te - Эффективная температура - температура, которую ощущает одетый по сезону человек в тени. Характеристика душности погоды. При расчете учитывается влияние влажности воздуха и скорости ветра на теплоощущения человека.
Tes - Эффективная температура на солнце - температура, которую ощущает человек, с поправкой на солнечный нагрев. Характеристика знойности погоды. Зависит от высоты солнца над горизонтом, облачности и скорости ветра. Ночью, в пасмурную погоду, а также при ветре 12 м/с и более поправка равна нулю.
P - Атмосферное давление - приведенное к уровню моря атмосферное давление.
Po - Атмосферное давление - измеренное на уровне метеостанции атмосферное давление.
Tmin - Минимальная температура - минимум температуры воздуха на высоте 2 м над землей.
Tmax - Максимальная температура - максимум температуры воздуха на высоте 2 м над землей.
R - Количество осадков - Количество выпавших осадков за период времени, мм. При наведении курсора мыши на число - период времени, за который выпало указанное количество осадков.
R24 - Количество осадков - Количество выпавших осадков за 24 часа, мм.
S - Снежный покров - Высота снежного покрова, см. При наведении курсора мыши на число - состояние снежного покрова и степень покрытия местности в баллах.